Location: Laan Hart van Zuid
(52.2563°N, 6.7904°E)
Time: 21:49:37
(UTC+01:00)

ACS3 Solar Sail - Visible Passes

Search period start: 18 January 2026 00:00
Search period end: 28 January 2026 00:00
Orbit: 898 x 978 km, 97.2° (Epoch: 18 January)

Date Brightness Start Highest point End Pass type
(mag) Time Alt. Az. Time Alt. Az. Time Alt. Az.
18 Jan 4.1 04:33:26 10° N 04:33:40 11° N 04:33:40 11° N visible
19 Jan 4.1 04:47:31 10° N 04:47:44 11° N 04:47:44 11° N visible
20 Jan 4.1 05:01:38 10° N 05:01:48 11° N 05:01:48 11° N visible
21 Jan 4.4 03:31:53 10° N 03:32:00 11° N 03:32:00 11° N visible
21 Jan 4.0 05:15:51 10° NNW 05:15:52 10° NNW 05:15:52 10° NNW visible
22 Jan 4.3 03:45:48 10° N 03:46:03 11° N 03:46:03 11° N visible
23 Jan 4.2 03:59:44 10° N 04:00:06 12° N 04:00:06 12° N visible
24 Jan 4.1 04:13:42 10° N 04:14:08 12° N 04:14:08 12° N visible
25 Jan 4.1 04:27:41 10° N 04:28:09 12° N 04:28:09 12° N visible
26 Jan 4.5 02:58:17 10° NNE 02:58:19 10° NNE 02:58:19 10° NNE visible
26 Jan 4.0 04:41:42 10° N 04:42:10 12° N 04:42:10 12° N visible
27 Jan 4.4 03:12:05 10° NNE 03:12:19 11° NNE 03:12:19 11° NNE visible
27 Jan 4.0 04:55:46 10° N 04:56:11 11° N 04:56:11 11° N visible
